Location: Krakow
(50.0212°N, 19.9423°E)
Time: 02:38:54
(UTC+02:00)

CAS-6 - Pass Details

Date: 26 April 2024
Orbit: 607 x 629 km, 97.8° (Epoch: 19 May)

Event Time Altitude Azimuth Distance (km) Brightness Sun altitude
Exits shadow 00:00:20 17° 265° (W) 1,563 ? -25.9°
Maximum altitude 00:00:35 17° 270° (W) 1,559 ? -25.9°
Drops below altitude 10° 00:03:28 10° 312° (NW) 1,988 ? -25.9°
Sets 00:06:20 0° 332° (NNW) 2,894 ? -26.0°
